This is the latest recevied weather packets stored in our database for station/object KD8JAM. If no packets are shown the sender has not sent any weather packets the latest 10 day(s).
| Time | Temp. | Humidity | Pressure | Rain* | Wind** | Luminosity | Snow |
|---|---|---|---|---|---|---|---|
| 1778103146 | 2.78° C | 76% | 1013.3 hPa | 0 mm | - | 227 W/m² | - |
| 1778102843 | 3.33° C | 75% | 1013.3 hPa | 0 mm | - | 234 W/m² | - |
| 1778102539 | 3.33° C | 75% | 1013.3 hPa | 0 mm | - | 258 W/m² | - |
| 1778102234 | 3.33° C | 76% | 1013.3 hPa | 0 mm | - | 269 W/m² | - |
| 1778101930 | 3.33° C | 75% | 1013.3 hPa | 0 mm | - | 270 W/m² | - |
| 1778101628 | 3.33° C | 76% | 1013.3 hPa | 0 mm | - | 278 W/m² | - |
| 1778101324 | 3.33° C | 75% | 1013 hPa | 0 mm | - | 285 W/m² | - |
| 1778101022 | 3.33° C | 76% | 1013.3 hPa | 0 mm | - | 301 W/m² | - |
| 1778100716 | 2.78° C | 76% | 1013.3 hPa | 0 mm | - | 307 W/m² | - |
| 1778100414 | 2.78° C | 77% | 1013.2 hPa | 0 mm | - | 293 W/m² | - |
| 1778100111 | 2.78° C | 76% | 1013.4 hPa | 0 mm | - | 321 W/m² | - |
| 1778099809 | 2.78° C | 77% | 1013.4 hPa | 0 mm | - | 330 W/m² | - |
| 1778099506 | 2.78° C | 77% | 1013.5 hPa | 0 mm | - | 311 W/m² | - |
| 1778099204 | 2.78° C | 76% | 1013.7 hPa | 0 mm | - | 302 W/m² | - |
| 1778098899 | 2.78° C | 78% | 1013.5 hPa | 0 mm | - | 281 W/m² | - |
| 1778098597 | 2.78° C | 79% | 1013.6 hPa | 0 mm | - | 269 W/m² | - |
| 1778098293 | 2.78° C | 80% | 1013.6 hPa | 0 mm | - | 263 W/m² | - |
| 1778097990 | 3.33° C | 79% | 1013.8 hPa | 0 mm | - | 313 W/m² | - |
| 1778097687 | 2.78° C | 78% | 1013.7 hPa | 0 mm | - | 347 W/m² | - |
| 1778097383 | 3.33° C | 78% | 1013.8 hPa | 0 mm | - | 411 W/m² | - |
| 1778097080 | 2.78° C | 79% | 1013.5 hPa | 0 mm | - | 452 W/m² | - |
| 1778096777 | 3.33° C | 79% | 1013.6 hPa | 0 mm | - | 406 W/m² | - |
| 1778096473 | 2.78° C | 78% | 1013.7 hPa | 0 mm | - | 456 W/m² | - |
| 1778096171 | 3.33° C | 78% | 1013.6 hPa | 0 mm | - | 364 W/m² | - |
| 1778095869 | 2.78° C | 78% | 1013.7 hPa | 0 mm | - | 372 W/m² | - |
* Rain latest hour (hover to see other rain measurements)
** Current wind speed in m/s (hover to see current wind gust speed)